DLH9U EGLL-EDDF

Flight info

Callsign DLH9U
Flight time 1h 7m
Altitude 35000
Route BPK Q295 MATCH DCT REDFA DCT TACHA DCT NOLRU DCT DIXAT DIXAT1A
Aircraft A320/M-SDE3FGHIRWY/LB1

Departure

Time 2026-05-07 12:40
Airport London Heathrow Airport (EGLL)

Arrival

Time 2026-05-07 13:47
Airport Frankfurt Main Airport (EDDF)
Time Latitude Longitude Altitude Speed Heading
2026-05-07 12:10 51.46996 -0.44682 89 ft 0 kts 270°
2026-05-07 12:30 51.46996 -0.44667 89 ft 4 kts 270°
2026-05-07 12:30 51.46996 -0.44624 87 ft 4 kts 270°
2026-05-07 12:30 51.46997 -0.44589 87 ft 4 kts 248°
2026-05-07 12:30 51.47013 -0.44562 89 ft 4 kts 193°
2026-05-07 12:31 51.47032 -0.44558 88 ft 0 kts 180°
2026-05-07 12:33 51.47028 -0.44558 88 ft 2 kts 180°
2026-05-07 12:33 51.46998 -0.44558 88 ft 8 kts 179°
2026-05-07 12:33 51.46905 -0.44557 87 ft 17 kts 180°
2026-05-07 12:34 51.46797 -0.44557 87 ft 16 kts 179°
2026-05-07 12:34 51.46686 -0.44568 89 ft 15 kts 208°
2026-05-07 12:34 51.46664 -0.44731 87 ft 16 kts 270°
2026-05-07 12:34 51.46664 -0.44922 87 ft 18 kts 269°
2026-05-07 12:35 51.46663 -0.45154 87 ft 24 kts 270°
2026-05-07 12:35 51.46662 -0.45439 87 ft 27 kts 269°
2026-05-07 12:35 51.46661 -0.45747 87 ft 28 kts 269°
2026-05-07 12:35 51.46659 -0.46068 88 ft 30 kts 270°
2026-05-07 12:36 51.46659 -0.46406 90 ft 30 kts 270°
2026-05-07 12:36 51.46657 -0.46744 90 ft 29 kts 270°
2026-05-07 12:36 51.46656 -0.47074 90 ft 30 kts 270°
2026-05-07 12:36 51.46655 -0.47420 87 ft 32 kts 269°
2026-05-07 12:37 51.46654 -0.47778 87 ft 33 kts 270°
2026-05-07 12:37 51.46653 -0.48120 87 ft 30 kts 270°
2026-05-07 12:37 51.46652 -0.48425 87 ft 23 kts 270°
2026-05-07 12:37 51.46651 -0.48642 87 ft 14 kts 269°
2026-05-07 12:38 51.46627 -0.48751 90 ft 6 kts 215°
2026-05-07 12:38 51.46616 -0.48760 92 ft 1 kts 206°
2026-05-07 12:38 51.46600 -0.48770 90 ft 2 kts 202°
2026-05-07 12:38 51.46596 -0.48773 90 ft 0 kts 201°
2026-05-07 12:39 51.46543 -0.48790 87 ft 20 kts 180°
2026-05-07 12:39 51.46477 -0.48622 88 ft 21 kts 91°
2026-05-07 12:39 51.46478 -0.48225 88 ft 67 kts 90°
2026-05-07 12:40 51.46482 -0.47094 87 ft 132 kts 89°
2026-05-07 12:40 51.46486 -0.45391 385 ft 158 kts 91°
2026-05-07 12:40 51.46504 -0.43638 1156 ft 161 kts 89°
2026-05-07 12:40 51.46569 -0.41756 1676 ft 180 kts 79°
2026-05-07 12:41 51.47101 -0.39829 2109 ft 201 kts 53°
2026-05-07 12:41 51.48028 -0.37980 2525 ft 222 kts 51°
2026-05-07 12:41 51.49058 -0.35943 2999 ft 248 kts 51°
2026-05-07 12:41 51.50179 -0.33722 3772 ft 262 kts 51°
2026-05-07 12:42 51.51339 -0.31420 4760 ft 268 kts 51°
2026-05-07 12:42 51.52447 -0.28989 5753 ft 273 kts 63°
2026-05-07 12:42 51.53134 -0.26131 6729 ft 276 kts 72°
2026-05-07 12:42 51.53911 -0.23289 7669 ft 281 kts 58°
2026-05-07 12:43 51.55224 -0.20944 8606 ft 286 kts 38°
2026-05-07 12:43 51.56997 -0.19475 9545 ft 290 kts 18°
2026-05-07 12:43 51.58920 -0.18372 10359 ft 300 kts 20°
2026-05-07 12:43 51.60980 -0.17271 10692 ft 325 kts 18°
2026-05-07 12:44 51.63219 -0.16146 10961 ft 349 kts 17°
2026-05-07 12:44 51.65595 -0.14993 11480 ft 362 kts 17°
2026-05-07 12:44 51.67998 -0.13664 12229 ft 367 kts 24°
2026-05-07 12:44 51.70267 -0.11721 13004 ft 372 kts 34°
2026-05-07 12:45 51.71649 -0.10080 13522 ft 374 kts 41°
2026-05-07 12:45 51.73496 -0.07006 14262 ft 378 kts 52°
2026-05-07 12:45 51.74891 -0.03480 14926 ft 381 kts 64°
2026-05-07 12:45 51.75831 0.00538 15578 ft 385 kts 77°
2026-05-07 12:46 51.76282 0.04822 16247 ft 388 kts 83°
2026-05-07 12:46 51.76634 0.09168 16907 ft 393 kts 83°
2026-05-07 12:46 51.76990 0.13564 17559 ft 397 kts 83°
2026-05-07 12:46 51.77352 0.18007 18185 ft 401 kts 83°
2026-05-07 12:47 51.77719 0.22491 18747 ft 405 kts 83°
2026-05-07 12:47 51.78236 0.26986 19289 ft 409 kts 76°
2026-05-07 12:47 51.78955 0.31451 19839 ft 412 kts 76°
2026-05-07 12:47 51.79677 0.35944 20385 ft 415 kts 76°
2026-05-07 12:48 51.80401 0.40475 20922 ft 418 kts 76°
2026-05-07 12:48 51.81131 0.45041 21458 ft 421 kts 76°
2026-05-07 12:48 51.81863 0.49648 21975 ft 424 kts 76°
2026-05-07 12:48 51.82595 0.54289 22494 ft 428 kts 76°
2026-05-07 12:49 51.83328 0.58962 23000 ft 431 kts 76°
2026-05-07 12:49 51.84064 0.63675 23496 ft 434 kts 77°
2026-05-07 12:49 51.84803 0.68418 23915 ft 437 kts 77°
2026-05-07 12:49 51.85550 0.73201 24343 ft 439 kts 76°
2026-05-07 12:50 51.86299 0.78002 24768 ft 441 kts 77°
2026-05-07 12:50 51.87052 0.82830 25199 ft 443 kts 77°
2026-05-07 12:50 51.87804 0.87677 25632 ft 445 kts 77°
2026-05-07 12:50 51.88554 0.92540 26052 ft 447 kts 77°
2026-05-07 12:51 51.89307 0.97438 26469 ft 449 kts 77°
2026-05-07 12:51 51.90059 1.02353 26866 ft 451 kts 77°
2026-05-07 12:51 51.90812 1.07289 27255 ft 452 kts 77°
2026-05-07 12:51 51.91566 1.12240 27643 ft 454 kts 77°
2026-05-07 12:52 51.92320 1.17201 28018 ft 455 kts 77°
2026-05-07 12:52 51.93077 1.22186 28402 ft 456 kts 77°
2026-05-07 12:52 51.93834 1.27194 28759 ft 458 kts 77°
2026-05-07 12:52 51.94589 1.32216 29116 ft 459 kts 77°
2026-05-07 12:53 51.95333 1.37181 29544 ft 458 kts 77°
2026-05-07 12:53 51.96079 1.42187 30075 ft 456 kts 77°
2026-05-07 12:53 51.96821 1.47183 30506 ft 454 kts 77°
2026-05-07 12:53 51.97562 1.52157 30921 ft 453 kts 77°
2026-05-07 12:54 51.98300 1.57117 31293 ft 452 kts 77°
2026-05-07 12:54 51.99037 1.62081 31671 ft 452 kts 77°
2026-05-07 12:54 51.99768 1.67032 32057 ft 451 kts 77°
2026-05-07 12:54 52.00497 1.71990 32437 ft 451 kts 77°
2026-05-07 12:55 52.01220 1.76942 32798 ft 450 kts 77°
2026-05-07 12:55 52.01938 1.81885 33155 ft 450 kts 77°
2026-05-07 12:55 52.02645 1.86767 33521 ft 450 kts 77°
2026-05-07 12:55 52.03360 1.91710 33886 ft 450 kts 77°
2026-05-07 12:56 52.04075 1.96654 34225 ft 450 kts 77°
2026-05-07 12:56 52.04787 2.01606 34515 ft 450 kts 77°
2026-05-07 12:56 52.05496 2.06573 34790 ft 451 kts 77°
2026-05-07 12:56 52.06205 2.11540 35025 ft 453 kts 77°
2026-05-07 12:57 52.07635 2.21550 35102 ft 454 kts 77°
2026-05-07 12:57 52.09046 2.31479 35104 ft 454 kts 78°
2026-05-07 12:58 52.10450 2.41486 35108 ft 454 kts 78°
2026-05-07 12:58 52.11882 2.51496 35103 ft 454 kts 76°
2026-05-07 12:59 52.13686 2.61361 35107 ft 454 kts 72°
2026-05-07 12:59 52.15680 2.71145 35106 ft 454 kts 72°
2026-05-07 13:00 52.17598 2.80876 35109 ft 454 kts 73°
2026-05-07 13:00 52.19443 2.90715 35109 ft 454 kts 73°
2026-05-07 13:01 52.21263 3.00586 35108 ft 454 kts 73°
2026-05-07 13:01 52.23083 3.10452 35103 ft 454 kts 74°
2026-05-07 13:02 52.24461 3.20473 35099 ft 453 kts 87°
2026-05-07 13:02 52.23900 3.30648 35091 ft 451 kts 105°
2026-05-07 13:03 52.21779 3.40181 35084 ft 451 kts 112°
2026-05-07 13:03 52.19494 3.49717 35085 ft 452 kts 112°
2026-05-07 13:04 52.17197 3.59278 35092 ft 453 kts 112°
2026-05-07 13:04 52.14896 3.68830 35086 ft 454 kts 112°
2026-05-07 13:05 52.12591 3.78327 35082 ft 454 kts 112°
2026-05-07 13:05 52.10255 3.87889 35080 ft 455 kts 112°
2026-05-07 13:06 52.07912 3.97456 35075 ft 456 kts 112°
2026-05-07 13:06 52.05559 4.07032 35074 ft 456 kts 112°
2026-05-07 13:07 52.03198 4.16601 35067 ft 457 kts 113°
2026-05-07 13:07 52.00817 4.26166 35067 ft 457 kts 113°
2026-05-07 13:08 51.98432 4.35736 35066 ft 458 kts 113°
2026-05-07 13:08 51.96037 4.45302 35068 ft 458 kts 113°
2026-05-07 13:09 51.93649 4.54816 35067 ft 458 kts 113°
2026-05-07 13:09 51.91243 4.64377 35067 ft 459 kts 113°
2026-05-07 13:10 51.88819 4.73937 35065 ft 459 kts 113°
2026-05-07 13:10 51.86388 4.83490 35064 ft 459 kts 114°
2026-05-07 13:11 51.83943 4.93040 35057 ft 459 kts 114°
2026-05-07 13:11 51.81503 5.02522 35056 ft 460 kts 114°
2026-05-07 13:12 51.79039 5.12076 35055 ft 460 kts 114°
2026-05-07 13:12 51.76577 5.21606 35053 ft 460 kts 114°
2026-05-07 13:13 51.74103 5.31132 35049 ft 460 kts 114°
2026-05-07 13:13 51.71622 5.40641 35042 ft 460 kts 114°
2026-05-07 13:14 51.69127 5.50159 35042 ft 461 kts 114°
2026-05-07 13:14 51.66635 5.59599 35042 ft 461 kts 114°
2026-05-07 13:15 51.64123 5.69095 35043 ft 461 kts 114°
2026-05-07 13:15 51.61605 5.78592 35045 ft 461 kts 114°
2026-05-07 13:16 51.59075 5.88088 35048 ft 462 kts 114°
2026-05-07 13:16 51.56533 5.97568 35048 ft 462 kts 114°
2026-05-07 13:17 51.53990 6.07039 35060 ft 462 kts 114°
2026-05-07 13:17 51.51451 6.16438 35054 ft 461 kts 114°
2026-05-07 13:18 51.48915 6.25898 35045 ft 461 kts 113°
2026-05-07 13:18 51.46574 6.35474 35042 ft 461 kts 111°
2026-05-07 13:19 51.44291 6.45095 35045 ft 461 kts 111°
2026-05-07 13:19 51.41951 6.54676 35044 ft 461 kts 112°
2026-05-07 13:20 51.39567 6.64230 35046 ft 461 kts 112°
2026-05-07 13:20 51.37201 6.73707 35043 ft 462 kts 112°
2026-05-07 13:21 51.34811 6.83238 35046 ft 462 kts 112°
2026-05-07 13:21 51.33613 6.87997 34914 ft 461 kts 112°
2026-05-07 13:21 51.32417 6.92747 34766 ft 462 kts 112°
2026-05-07 13:22 51.31212 6.97518 34626 ft 462 kts 112°
2026-05-07 13:22 51.30008 7.02281 34484 ft 462 kts 112°
2026-05-07 13:22 51.28701 7.06974 34337 ft 461 kts 118°
2026-05-07 13:22 51.26973 7.11283 34191 ft 461 kts 128°
2026-05-07 13:23 51.24836 7.15088 34010 ft 460 kts 138°
2026-05-07 13:23 51.22497 7.18123 33779 ft 457 kts 146°
2026-05-07 13:23 51.19766 7.20693 32886 ft 457 kts 154°
2026-05-07 13:23 51.16910 7.22934 31979 ft 458 kts 155°
2026-05-07 13:24 51.14035 7.25179 31065 ft 460 kts 155°
2026-05-07 13:24 51.11165 7.27429 30403 ft 460 kts 154°
2026-05-07 13:24 51.08300 7.29724 29756 ft 461 kts 154°
2026-05-07 13:24 51.05449 7.32062 29092 ft 462 kts 153°
2026-05-07 13:25 51.02590 7.34440 28443 ft 464 kts 153°
2026-05-07 13:25 50.99737 7.36832 27816 ft 465 kts 153°
2026-05-07 13:25 50.96867 7.39231 27198 ft 466 kts 153°
2026-05-07 13:25 50.93982 7.41622 26586 ft 468 kts 154°
2026-05-07 13:26 50.91125 7.43969 26005 ft 469 kts 154°
2026-05-07 13:26 50.88225 7.46342 25423 ft 467 kts 154°
2026-05-07 13:26 50.85339 7.48695 24847 ft 464 kts 154°
2026-05-07 13:26 50.82473 7.51023 24299 ft 460 kts 154°
2026-05-07 13:27 50.79637 7.53325 23753 ft 457 kts 154°
2026-05-07 13:27 50.76857 7.55587 23144 ft 454 kts 154°
2026-05-07 13:27 50.74058 7.57865 22510 ft 450 kts 154°
2026-05-07 13:27 50.71284 7.60120 21875 ft 446 kts 154°
2026-05-07 13:28 50.68535 7.62350 21274 ft 443 kts 154°
2026-05-07 13:28 50.65805 7.64560 20677 ft 439 kts 154°
2026-05-07 13:28 50.63098 7.66754 20097 ft 436 kts 153°
2026-05-07 13:28 50.60415 7.68930 19533 ft 432 kts 153°
2026-05-07 13:29 50.57746 7.71089 18957 ft 429 kts 153°
2026-05-07 13:29 50.55101 7.73222 18412 ft 425 kts 153°
2026-05-07 13:29 50.52475 7.75334 17798 ft 422 kts 153°
2026-05-07 13:29 50.49904 7.77392 17191 ft 419 kts 154°
2026-05-07 13:30 50.47312 7.79467 16586 ft 416 kts 154°
2026-05-07 13:30 50.44740 7.81536 16001 ft 414 kts 153°
2026-05-07 13:30 50.42328 7.83979 15408 ft 411 kts 143°
2026-05-07 13:30 50.40107 7.86758 14838 ft 405 kts 142°
2026-05-07 13:31 50.37918 7.89499 14279 ft 400 kts 141°
2026-05-07 13:31 50.36026 7.92707 13706 ft 403 kts 124°
2026-05-07 13:31 50.34856 7.96673 13088 ft 401 kts 105°
2026-05-07 13:31 50.34226 8.00912 12487 ft 398 kts 102°
2026-05-07 13:32 50.33627 8.05125 11900 ft 394 kts 102°
2026-05-07 13:32 50.33045 8.09239 11481 ft 392 kts 102°
2026-05-07 13:32 50.32455 8.13403 11131 ft 390 kts 102°
2026-05-07 13:32 50.31863 8.17534 10788 ft 388 kts 102°
2026-05-07 13:33 50.31270 8.21637 10460 ft 386 kts 102°
2026-05-07 13:33 50.30679 8.25728 10330 ft 385 kts 102°
2026-05-07 13:33 50.30091 8.29806 10201 ft 384 kts 102°
2026-05-07 13:33 50.29502 8.33875 10037 ft 379 kts 102°
2026-05-07 13:34 50.28931 8.37784 10039 ft 357 kts 102°
2026-05-07 13:34 50.27883 8.44913 10049 ft 318 kts 102°
2026-05-07 13:34 50.27402 8.48206 10047 ft 303 kts 102°
2026-05-07 13:35 50.26944 8.51337 10048 ft 298 kts 102°
2026-05-07 13:35 50.26481 8.54494 10048 ft 297 kts 102°
2026-05-07 13:35 50.26017 8.57636 10051 ft 297 kts 102°
2026-05-07 13:35 50.25551 8.60792 10050 ft 300 kts 102°
2026-05-07 13:36 50.25084 8.63946 9872 ft 295 kts 102°
2026-05-07 13:36 50.24623 8.67059 9481 ft 293 kts 102°
2026-05-07 13:36 50.24162 8.70154 9095 ft 292 kts 102°
2026-05-07 13:36 50.23702 8.73234 8707 ft 290 kts 102°
2026-05-07 13:37 50.23245 8.76292 8326 ft 288 kts 102°
2026-05-07 13:37 50.22799 8.79276 8064 ft 282 kts 102°
2026-05-07 13:37 50.22451 8.82232 7933 ft 270 kts 96°
2026-05-07 13:37 50.22314 8.85062 7712 ft 255 kts 90°
2026-05-07 13:38 50.22358 8.87815 7478 ft 250 kts 84°
2026-05-07 13:38 50.22565 8.90483 7085 ft 246 kts 78°
2026-05-07 13:38 50.22937 8.93084 6622 ft 247 kts 72°
2026-05-07 13:38 50.23469 8.95620 6345 ft 244 kts 68°
2026-05-07 13:39 50.24045 8.98067 6049 ft 243 kts 68°
2026-05-07 13:39 50.24471 9.00606 5764 ft 243 kts 87°
2026-05-07 13:39 50.24089 9.03145 5492 ft 243 kts 120°
2026-05-07 13:39 50.22922 9.05002 5210 ft 241 kts 152°
2026-05-07 13:40 50.21325 9.05622 4961 ft 238 kts 185°
2026-05-07 13:40 50.19780 9.04845 4702 ft 233 kts 216°
2026-05-07 13:40 50.18504 9.03274 4460 ft 233 kts 223°
2026-05-07 13:40 50.17288 9.01596 4174 ft 233 kts 224°
2026-05-07 13:41 50.16100 8.99934 4006 ft 232 kts 224°
2026-05-07 13:41 50.14896 8.98250 3992 ft 233 kts 224°
2026-05-07 13:41 50.13689 8.96561 3997 ft 233 kts 224°
2026-05-07 13:41 50.12585 8.94737 3990 ft 230 kts 242°
2026-05-07 13:42 50.11969 8.92449 4002 ft 229 kts 252°
2026-05-07 13:42 50.11436 8.90118 4004 ft 229 kts 252°
2026-05-07 13:42 50.10895 8.87789 4005 ft 228 kts 252°
2026-05-07 13:42 50.10359 8.85508 3948 ft 219 kts 252°
2026-05-07 13:43 50.09840 8.83304 3717 ft 214 kts 251°
2026-05-07 13:43 50.09507 8.81894 3551 ft 204 kts 251°
2026-05-07 13:43 50.09035 8.79893 3314 ft 190 kts 252°
2026-05-07 13:43 50.08455 8.77433 2968 ft 179 kts 252°
2026-05-07 13:44 50.08032 8.75640 2740 ft 175 kts 252°
2026-05-07 13:44 50.07749 8.74442 2566 ft 175 kts 252°
2026-05-07 13:44 50.07372 8.72849 2351 ft 174 kts 251°
2026-05-07 13:44 50.06957 8.71094 2116 ft 168 kts 252°
2026-05-07 13:45 50.06567 8.69451 1888 ft 156 kts 252°
2026-05-07 13:45 50.06203 8.67918 1683 ft 147 kts 252°
2026-05-07 13:45 50.05852 8.66443 1487 ft 143 kts 252°
2026-05-07 13:45 50.05509 8.64997 1304 ft 142 kts 252°
2026-05-07 13:46 50.05177 8.63558 1097 ft 140 kts 251°
2026-05-07 13:46 50.04850 8.62159 894 ft 139 kts 250°
2026-05-07 13:46 50.04508 8.60758 696 ft 139 kts 250°
2026-05-07 13:46 50.04175 8.59347 508 ft 139 kts 248°
2026-05-07 13:47 50.03841 8.57954 376 ft 131 kts 248°
2026-05-07 13:47 50.03551 8.56748 351 ft 100 kts 250°
2026-05-07 13:47 50.03369 8.55984 354 ft 50 kts 249°
2026-05-07 13:47 50.03315 8.55513 348 ft 38 kts 277°
2026-05-07 13:48 50.03343 8.55247 346 ft 13 kts 281°
2026-05-07 13:48 50.03364 8.55179 345 ft 5 kts 320°
2026-05-07 13:48 50.03392 8.55167 343 ft 0 kts 359°
2026-05-07 13:48 50.03397 8.55160 352 ft 4 kts 324°
2026-05-07 13:49 50.03389 8.55039 352 ft 15 kts 251°
2026-05-07 13:49 50.03349 8.54872 339 ft 19 kts 250°
2026-05-07 13:49 50.03300 8.54668 336 ft 18 kts 249°
2026-05-07 13:49 50.03297 8.54498 335 ft 16 kts 318°
2026-05-07 13:50 50.03351 8.54459 335 ft 6 kts 340°
2026-05-07 13:50 50.03381 8.54441 337 ft 4 kts 340°
2026-05-07 13:50 50.03414 8.54422 339 ft 10 kts 340°
2026-05-07 13:50 50.03522 8.54361 351 ft 18 kts 339°
2026-05-07 13:51 50.03625 8.54312 348 ft 14 kts
2026-05-07 13:51 50.03680 8.54411 348 ft 12 kts 68°
2026-05-07 13:51 50.03708 8.54527 355 ft 11 kts 69°
2026-05-07 13:51 50.03732 8.54627 352 ft 10 kts 70°
2026-05-07 13:52 50.03766 8.54766 352 ft 14 kts 69°
2026-05-07 13:52 50.03796 8.54900 356 ft 12 kts 70°
2026-05-07 13:52 50.03810 8.54956 354 ft 0 kts 68°
2026-05-07 13:52 50.03813 8.54969 348 ft 5 kts 68°
2026-05-07 13:53 50.03840 8.55078 352 ft 16 kts 70°
2026-05-07 13:53 50.03876 8.55229 355 ft 14 kts 69°
2026-05-07 13:53 50.03905 8.55351 349 ft 11 kts 70°
2026-05-07 13:53 50.03927 8.55441 358 ft 0 kts 69°
2026-05-07 13:54 50.03930 8.55454 357 ft 5 kts 69°
2026-05-07 13:54 50.03951 8.55540 351 ft 12 kts 69°
2026-05-07 13:54 50.03981 8.55667 350 ft 12 kts 71°
2026-05-07 13:54 50.04009 8.55784 351 ft 14 kts 69°
2026-05-07 13:55 50.04049 8.55950 354 ft 21 kts 72°
2026-05-07 13:55 50.04085 8.56102 357 ft 11 kts 69°
2026-05-07 13:55 50.04110 8.56202 357 ft 9 kts 69°
2026-05-07 13:55 50.04131 8.56291 355 ft 8 kts 70°
2026-05-07 13:56 50.04151 8.56377 358 ft 12 kts 70°
2026-05-07 13:56 50.04190 8.56545 363 ft 19 kts 69°
2026-05-07 13:56 50.04226 8.56693 357 ft 10 kts 69°
2026-05-07 13:56 50.04252 8.56778 365 ft 7 kts 49°
2026-05-07 13:57 50.04291 8.56809 362 ft 7 kts 16°
2026-05-07 13:57 50.04374 8.56836 360 ft 15 kts 11°
2026-05-07 13:57 50.04476 8.56863 359 ft 14 kts 13°
2026-05-07 13:57 50.04515 8.56828 359 ft 6 kts 307°
2026-05-07 13:58 50.04536 8.56771 362 ft 6 kts 295°
2026-05-07 13:58 50.04546 8.56737 362 ft 1 kts 295°
2026-05-07 13:58 50.04547 8.56733 362 ft 0 kts 295°